Meteopurmerend
purmerend
Purmerend - Baaienwijk



My webcam  My webcam


waarschuwing voor Onweer Meer informatie blitzortung!


Regen radar Meer informatie rain snow radar


Bezoek onze andere website:

CandyAppleRed WebdesignWebdesign Purmerend Candy Apple Red

MeteopurmerendBlog

Template documentation
and downloads



Onweer van: 26-07-2021 13:00 tot: 21:00 waarschuwing voor: Onweer niveau: Geel info button
Enkele onweersbuien, lokaal met hagel en veel neerslag in korte tijd.Kans op blikseminslag, hagel en veel neerslag in korte tijd.Verkeer en buitenactiviteiten kunnen hinder ondervinden.Mijd open water en open gebied, schuil niet onder bomen.Volg weerberichten en waarschuwingen.

15 daagse weersverwachting Beveren (BE)

  • Overzicht
  • Per uur
  • 15 dagen
  • Extra
  • Vergelijk
  • Kaarten
  • Dagkaart
  • Meer »
  • Info
  • Statistieken
  • Directe link
    Temp 6h Neerslag Wind  
 06:02     21:38    Daglengte: 15:36 Vandaag
20:00
19°
3.8 mm
3
 06:03     21:37    Daglengte: 15:34 Morgen
02:00
16°
 
3
08:00
16°
 
3
14:00
21°
2.4 mm
4
warningclass
20:00
18°
5.3 mm
4
 06:05     21:35    Daglengte: 15:30 Woensdag 28 Jul
02:00
16°
 
4
08:00
16°
 
6
14:00
20°
31.5 mm
8
20:00
19°
35.6 mm
6
 06:06     21:34    Daglengte: 15:28 Donderdag 29 Jul
02:00
15°
18.7 mm
6
08:00
15°
 
7
Locatie info
Region: Flandern
Latitude: 51.2133°N
Longitude: 4.2578°E
12 masl
Postcode: 9120
Temp/Neerslag /Baro Onweer/Dauwpunt
    Temp Baro 1h Neerslag Dauwpunt Wind UV Bewolking  
 06:02     21:38    Daglengte: 15:36 Vandaag
17:00
19°
1010.0 hPa 0.8 mm
82%
16.3°
4
Windvlaag: 4.5 m/s
74%
18:00
19°
1010.1 hPa 1.0 mm
82%
16.4°
4
Windvlaag: 3.2 m/s
76%
19:00
19°
1010.2 hPa
82%
16.3°
3
Windvlaag: 1.7 m/s
38%
20:00
19°
1010.3 hPa
80%
16.2°
3
Windvlaag: 2.3 m/s
24%
21:00
18°
1010.7 hPa
30%
15.6°
3
Windvlaag: 3.2 m/s
18%
22:00
17°
1011.1 hPa
14%
15.8°
2
Windvlaag: 3.5 m/s
45%
23:00
17°
1011.5 hPa
14%
15.8°
2
Windvlaag: 3.3 m/s
54%
 06:03     21:37    Daglengte: 15:34 Morgen
00:00
16°
1011.6 hPa
14%
15.7°
2
Windvlaag: 2.6 m/s
56%
01:00
16°
1011.4 hPa
14%
15.6°
2
Windvlaag: 3.6 m/s
17%
02:00
16°
1011.4 hPa
14%
15.7°
3
Windvlaag: 4.4 m/s
20%
03:00
16°
1011.2 hPa
14%
15.3°
3
Windvlaag: 4.9 m/s
11%
04:00
16°
1011.1 hPa
14%
14.8°
3
Windvlaag: 5.7 m/s
9%
05:00
15°
1010.9 hPa
15%
14.3°
3
Windvlaag: 5.6 m/s
33%
06:00
15°
1010.7 hPa
14%
14.2°
3
Windvlaag: 5.2 m/s
58%
07:00
16°
1010.8 hPa
17%
14.7°
3
Windvlaag: 5.1 m/s
75%
08:00
16°
1010.8 hPa
19%
15.1°
3
Windvlaag: 6.7 m/s
79%
09:00
17°
1010.9 hPa
16%
15.5°
4
Windvlaag: 6.5 m/s
79%
10:00
18°
1011.0 hPa
18%
16.0°
4
Windvlaag: 6.5 m/s
75%
11:00
19°
1010.8 hPa
17%
15.9°
4
Windvlaag: 5.7 m/s
67%
12:00
20°
1010.8 hPa
75%
15.7°
4
Windvlaag: 5.7 m/s
83%
13:00
20°
1010.4 hPa 1.3 mm
80%
13.9°
4
Windvlaag: 5.3 m/s
81%
14:00
21°
1010.2 hPa 1.1 mm
81%
15.7°
4
Windvlaag: 6.1 m/s
53% warningclass
15:00
20°
1010.3 hPa 2.5 mm
82%
18.2°
5
Windvlaag: 8.3 m/s
76%
16:00
20°
1009.9 hPa
82%
17.2°
4
Windvlaag: 8.1 m/s
85%
17:00
20°
1009.7 hPa
82%
16.2°
5
Windvlaag: 7.5 m/s
69%
18:00
19°
1009.5 hPa 2.8 mm
80%
15.9°
4
Windvlaag: 7.4 m/s
75%
19:00
19°
1009.4 hPa
32%
16.8°
4
Windvlaag: 6.9 m/s
86%
20:00
18°
1009.4 hPa
73%
16.6°
4
Windvlaag: 4.8 m/s
63%
21:00
18°
1009.4 hPa
78%
15.8°
3
Windvlaag: 5.1 m/s
63%
22:00
17°
1009.6 hPa
73%
16.4°
4
Windvlaag: 6.8 m/s
61%
23:00
17°
1009.8 hPa
76%
15.6°
4
Windvlaag: 7.4 m/s
63%
 06:05     21:35    Daglengte: 15:30 Woensdag 28 Jul
00:00
17°
1009.7 hPa
79%
14.7°
4
Windvlaag: 7.9 m/s
67%
01:00
16°
1009.4 hPa
82%
14.5°
4
Windvlaag: 7.9 m/s
71%
02:00
16°
1009.1 hPa
78%
14.6°
4
Windvlaag: 8.7 m/s
51%
03:00
16°
1008.9 hPa
64%
14.4°
4
Windvlaag: 8.6 m/s
60%
04:00
16°
1008.7 hPa
69%
14.0°
4
Windvlaag: 9 m/s
62%
05:00
16°
1008.5 hPa
72%
13.8°
5
Windvlaag: 9 m/s
56%
06:00
16°
1008.5 hPa
22%
13.7°
5
Windvlaag: 9.3 m/s
19%
07:00
16°
1008.7 hPa
77%
13.6°
6
Windvlaag: 9.1 m/s
66%
08:00
16°
1008.8 hPa
82%
13.5°
6
Windvlaag: 9.5 m/s
48%
09:00
16°
1008.8 hPa
82%
13.8°
7
Windvlaag: 10.3 m/s
61%
10:00
17°
1009.0 hPa
68%
13.8°
7
Windvlaag: 10.5 m/s
52%
11:00
18°
1008.8 hPa 8.6 mm
85%
13.4°
7
Windvlaag: 10.3 m/s
79%
12:00
18°
1008.8 hPa 5.3 mm
92%
12.7°
7
Windvlaag: 10.1 m/s
43%
13:00
19°
1008.9 hPa 8.9 mm
99%
13.2°
8
Windvlaag: 9.2 m/s
54%
14:00
20°
1008.9 hPa 8.8 mm
100%
12.3°
8
Windvlaag: 8.6 m/s
62%
15:00
19°
1009.3 hPa 5.7 mm
100%
12.3°
7
Windvlaag: 8.2 m/s
42%
16:00
20°
1009.2 hPa 5.4 mm
100%
11.7°
7
Windvlaag: 8.9 m/s
70%
17:00
20°
1009.4 hPa 6.0 mm
100%
12.0°
7
Windvlaag: 9.8 m/s
43%
18:00
20°
1009.0 hPa 9.2 mm
95%
10.0°
7
Windvlaag: 8.4 m/s
18%
19:00
19°
1008.9 hPa 9.3 mm
100%
9.3°
7
Windvlaag: 9.2 m/s
45%
20:00
19°
1008.8 hPa
45%
9.9°
6
Windvlaag: 8.7 m/s
3%
21:00
18°
1008.9 hPa
25%
9.4°
5
Windvlaag: 8.2 m/s
20%
22:00
17°
1009.1 hPa 9.1 mm
23%
10.0°
6
Windvlaag: 8.8 m/s
61%
23:00
16°
1009.2 hPa 9.6 mm
22%
11.0°
5
Windvlaag: 8.7 m/s
77%
 06:06     21:34    Daglengte: 15:28 Donderdag 29 Jul
00:00
16°
1008.9 hPa
21%
12.1°
6
Windvlaag: 8.5 m/s
68%
01:00
15°
1008.7 hPa
21%
11.7°
6
Windvlaag: 9.3 m/s
13%
02:00
15°
1008.3 hPa
23%
11.9°
6
Windvlaag: 10.4 m/s
69%
03:00
15°
1008.0 hPa
27%
11.9°
6
Windvlaag: 11 m/s
66%
04:00
15°
1007.8 hPa
25%
12.3°
6
Windvlaag: 11.1 m/s
61%
05:00
14°
1007.8 hPa
25%
11.9°
6
Windvlaag: 10.9 m/s
60%
06:00
14°
1008.2 hPa
22%
11.6°
6
Windvlaag: 10.5 m/s
68%
07:00
14°
1008.3 hPa
21%
11.2°
6
Windvlaag: 9.2 m/s
67%
08:00
15°
1008.7 hPa
23%
11.1°
7
Windvlaag: 10.3 m/s
69%
09:00
16°
1010.3 hPa
25%
11.5°
7
Windvlaag: 13.9 m/s
52%
10:00
17°
1010.4 hPa
25%
11.3°
7
Windvlaag: 12.6 m/s
39%
11:00
18°
1010.6 hPa
25%
10.1°
7
Windvlaag: 13.1 m/s
58%
12:00
19°
1010.6 hPa
25%
9.7°
8
Windvlaag: 13.7 m/s
59%
13:00
19°
1010.8 hPa
25%
9.7°
7
Windvlaag: 13.4 m/s
44%
14:00
20°
1010.8 hPa
25%
10.8°
8
Windvlaag: 13.6 m/s
72%
15:00
18°
1011.0 hPa   13.3°
8
Windvlaag: 11 m/s
45%
Temp/Neerslag /Baro Onweer/Dauwpunt
    Temp Baro Neerslag Dauwpunt Wind Bewolking  
 06:02     21:38    Daglengte: 15:36 Vandaag
17:00
19°
1010.0 hPa 2.8 mm 16.3°
4
74%
20:00
19°
1010.3 hPa 1.0 mm 16.2°
3
24%
23:00
17°
1011.5 hPa   15.8°
2
54%
 06:03     21:37    Daglengte: 15:34 Morgen
02:00
16°
1011.4 hPa   15.7°
3
20%
05:00
15°
1010.9 hPa   14.3°
3
33%
08:00
16°
1010.8 hPa   15.1°
3
79%
11:00
19°
1010.8 hPa   15.9°
4
67%
14:00
21°
1010.2 hPa 2.4 mm 15.7°
4
53% warningclass
17:00
20°
1009.7 hPa 2.5 mm 16.2°
5
69%
20:00
18°
1009.4 hPa 2.8 mm 16.6°
4
63%
23:00
17°
1009.8 hPa   15.6°
4
63%
 06:05     21:35    Daglengte: 15:30 Woensdag 28 Jul
02:00
16°
1009.1 hPa   14.6°
4
51%
05:00
16°
1008.5 hPa   13.8°
5
56%
08:00
16°
1008.8 hPa   13.5°
6
48%
11:00
18°
1008.8 hPa 8.6 mm 13.4°
7
79%
14:00
20°
1008.9 hPa 23.0 mm 12.3°
8
62%
17:00
20°
1009.4 hPa 17.1 mm 12.0°
7
43%
20:00
19°
1008.8 hPa 18.5 mm 9.9°
6
3%
23:00
16°
1009.2 hPa 18.7 mm 11.0°
5
77%
 06:06     21:34    Daglengte: 15:28 Donderdag 29 Jul
02:00
15°
1008.3 hPa   11.9°
6
69%
05:00
14°
1007.8 hPa   11.9°
6
60%
08:00
15°
1008.7 hPa   11.1°
7
69%
11:00
18°
1010.6 hPa   10.1°
7
58%
14:00
20°
1010.8 hPa   10.8°
8
72%
17:00
19°
1011.1 hPa 6.0 mm 10.5°
7
12%
20:00
18°
1011.8 hPa 11.8 mm 10.7°
6
12%
23:00
15°
1012.0 hPa 11.8 mm 10.2°
5
15%
 06:07     21:32    Daglengte: 15:25 Vrijdag 30 Jul
02:00
13°
1012.0 hPa 11.8 mm 10.5°
4
17%
05:00
12°
1011.2 hPa 11.8 mm 10.6°
4
10%
08:00
14°
1011.9 hPa 11.8 mm 11.1°
4
23%
11:00
17°
1011.5 hPa 11.8 mm 10.3°
4
17%
14:00
21°
1010.0 hPa 11.8 mm 10.5°
4
12%
17:00
21°
1008.8 hPa 11.8 mm 12.3°
3
25%
20:00
18°
1007.6 hPa 6.4 mm 14.0°
2
24%
23:00
16°
1008.0 hPa 7.2 mm 14.1°
1
19%
 06:09     21:31    Daglengte: 15:22 Zaterdag 31 Jul
02:00
14°
1008.0 hPa 6.8 mm 13.4°
2
14%
05:00
13°
1006.7 hPa 13.4 mm 11.7°
3
2%
08:00
14°
1005.7 hPa 13.4 mm 11.9°
4
3%
11:00
15°
1004.8 hPa 7.1 mm 12.2°
7
24%
14:00
16°
1004.1 hPa 8.0 mm 13.1°
8
24%
17:00
17°
1004.4 hPa 8.4 mm 10.4°
8
15%
20:00
16°
1007.0 hPa 7.9 mm 11.5°
5
12%
23:00
14°
1008.1 hPa 15.7 mm 11.3°
3
2%
 06:10     21:29    Daglengte: 15:19 Zondag 01 Aug
02:00
13°
1007.8 hPa 15.7 mm 11.5°
3
10%
05:00
12°
1007.0 hPa 8.1 mm 11.6°
4
16%
08:00
13°
1007.0 hPa 8.0 mm 11.6°
4
17%
11:00
15°
1007.8 hPa 8.8 mm 11.1°
5
20%
14:00
17°
1008.1 hPa 8.9 mm 9.1°
6
21%
17:00
17°
1009.1 hPa 8.7 mm 9.9°
6
15%
20:00
16°
1010.3 hPa 9.0 mm 11.3°
4
12%
23:00
13°
1012.3 hPa 17.7 mm 10.4°
3
2%
 06:12     21:27    Daglengte: 15:15 Maandag 02 Aug
02:00
12°
1014.0 hPa 17.7 mm 9.3°
2
0%
05:00
11°
1014.5 hPa 17.7 mm 9.1°
2
0%
08:00
13°
1015.4 hPa 17.7 mm 9.6°
2
0%
11:00
16°
1016.6 hPa 17.7 mm 10.5°
3
1%
14:00
17°
1016.5 hPa 35.4 mm 10.4°
2
1%
20:00
19°
1015.4 hPa 35.5 mm 10.8°
1
1%
 06:13     21:26    Daglengte: 15:13 Dinsdag 03 Aug
02:00
13°
1015.9 hPa 36.1 mm 10.2°
2
0%
08:00
13°
1016.3 hPa 36.1 mm 8.7°
4
1%
14:00
21°
1015.4 hPa 36.1 mm 9.7°
5
1%
20:00
20°
1014.2 hPa 36.1 mm 12.3°
4
1%
 06:15     21:24    Daglengte: 15:09 Woensdag 04 Aug
02:00
16°
1013.5 hPa 36.1 mm 12.5°
4
1%
08:00
16°
1011.8 hPa 36.1 mm 11.2°
5
1%
14:00
22°
1010.1 hPa 36.1 mm 12.2°
8
1%
20:00
20°
1009.7 hPa 38.0 mm 11.7°
7
0%
 06:16     21:22    Daglengte: 15:06 Donderdag 05 Aug
02:00
15°
1010.1 hPa 38.3 mm 12.2°
5
0%
08:00
15°
1009.0 hPa 38.3 mm 12.9°
5
1%
14:00
20°
1010.3 hPa 1.2 mm 12.8°
4
75%
20:00
19°
1008.9 hPa 1.7 mm 13.4°
2
75%
 06:18     21:21    Daglengte: 15:03 Vrijdag 06 Aug
02:00
15°
1008.5 hPa 0.8 mm 12.2°
2
65%
08:00
15°
1008.3 hPa 0.8 mm 12.3°
3
65%
14:00
20°
1008.4 hPa 1.5 mm 12.5°
4
68%
20:00
18°
1007.7 hPa 2.1 mm 12.6°
3
63%
 06:19     21:19    Daglengte: 15:00 Zaterdag 07 Aug
02:00
14°
1008.3 hPa 0.6 mm 11.5°
3
56%
08:00
14°
1008.4 hPa 0.8 mm 12.0°
4
58%
14:00
19°
1009.0 hPa 1.7 mm 12.6°
5
69%
20:00
18°
1009.6 hPa 1.7 mm 12.4°
4
63%
 06:21     21:17    Daglengte: 14:56 Zondag 08 Aug
02:00
14°
1010.7 hPa 0.2 mm 11.4°
4
59%
08:00
14°
1010.7 hPa 0.7 mm 11.9°
4
69%
14:00
19°
1011.5 hPa 1.5 mm 12.2°
6
70%
20:00
18°
1012.0 hPa 0.2 mm 12.3°
4
66%
 06:22     21:15    Daglengte: 14:53 Maandag 09 Aug
02:00
14°
1013.2 hPa 0.4 mm 11.3°
3
63%
08:00
14°
1013.7 hPa 0.4 mm 11.4°
4
57%
14:00
19°
1014.5 hPa 0.9 mm 11.9°
5
65%
20:00
18°
1014.7 hPa 0.2 mm 12.2°
3
63%
 06:24     21:13    Daglengte: 14:49 Dinsdag 10 Aug
02:00
14°
1015.6 hPa 0.6 mm 11.4°
2
53%
08:00
14°
1015.9 hPa 0.4 mm 11.6°
3
52%
14:00
20°
1016.6 hPa 0.7 mm 12.3°
4
56%
  CAPE Lifted Index Hail Supercell Tornado SRH 3km CL BTM PRES CL TOP PRES Swiss DWD icon SMHI TS
 06:02     21:38    Daglengte: 15:36 Vandaag
17:00 622 J/kg -2.4 K 0 % 0 % 0 % 0 m²/s² 0 0 -1.89 80
18:00 326 J/kg -1.4 K 0 % 0 % 0 % 0 m²/s² 0 0 -0.98 80
19:00 777 J/kg -2.9 K 0 % 0 % 0 % 0 m²/s² 0 0 -2.33 3
20:00 494 J/kg -2.1 K 0 % 0 % 0 % 0 m²/s² 0 0 -1.05 3
21:00 177 J/kg -1.0 K 0 % 0 % 0 % 0 m²/s² 0 0 -0.1 3
22:00 38 J/kg -0.2 K 0 % 0 % 0 % 0 m²/s² 0 0 0.7 3
23:00 53 J/kg 0.0 K 0 % 0 % 0 % 0 m²/s² 0 0 1.41 3
 06:03     21:37    Daglengte: 15:34 Morgen
00:00 41 J/kg -0.5 K 0 % 0 % 0 % 0 m²/s² 0 0 1.42 3
01:00 17 J/kg -1.4 K 0 % 0 % 0 % 0 m²/s² 0 0 0.67 2
02:00 44 J/kg -1.3 K 0 % 0 % 0 % 0 m²/s² 0 0 1.25 2
03:00 51 J/kg -0.6 K 0 % 0 % 0 % 0 m²/s² 0 0 2.04 2
04:00 0 J/kg -0.1 K 0 % 0 % 0 % 0 m²/s² 0 0 2.75 2
05:00 0 J/kg 0.2 K 0 % 0 % 0 % 0 m²/s² 0 0 3.23 3
06:00 0 J/kg 1.3 K 0 % 0 % 0 % 0 m²/s² 0 0 4.66 3
07:00 0 J/kg -0.4 K 0 % 0 % 0 % 0 m²/s² 0 0 2.87 3
08:00 0 J/kg -2.3 K 0 % 0 % 0 % 0 m²/s² 0 0 0.25 3
09:00 32 J/kg -2.3 K 0 % 0 % 0 % 0 m²/s² 0 0 -0.11 3
10:00 317 J/kg -1.8 K 0 % 0 % 0 % 0 m²/s² 0 0 -0.24 3
11:00 481 J/kg -2.2 K 0 % 0 % 0 % 0 m²/s² 0 0 -0.97 3
12:00 616 J/kg -2.6 K 0 % 0 % 0 % 0 m²/s² 0 0 -1.58 3
13:00 647 J/kg -2.6 K 0 % 0 % 0 % 0 m²/s² 0 0 -2 80
14:00 664 J/kg -2.9 K 0 % 0 % 0 % 0 m²/s² 0 0 -2.48 80
15:00 343 J/kg -1.0 K 0 % 0 % 0 % 0 m²/s² 0 0 -0.4 80
16:00 232 J/kg -0.8 K 0 % 0 % 0 % 0 m²/s² 0 0 -0.53 80
17:00 241 J/kg -0.6 K 0 % 0 % 0 % 0 m²/s² 0 0 -0.3 80
18:00 341 J/kg -1.4 K 0 % 0 % 0 % 0 m²/s² 0 0 -1.22 61
19:00 536 J/kg -1.8 K 0 % 0 % 0 % 0 m²/s² 0 0 -1.56 3
20:00 297 J/kg -1.1 K 0 % 0 % 0 % 0 m²/s² 0 0 -0.98 3
21:00 473 J/kg -1.9 K 0 % 0 % 0 % 0 m²/s² 0 0 -1.6 3
22:00 371 J/kg -1.7 K 0 % 0 % 0 % 0 m²/s² 0 0 -1.1 3
23:00 410 J/kg -1.6 K 0 % 0 % 0 % 0 m²/s² 0 0 -1.39 3
 06:05     21:35    Daglengte: 15:30 Woensdag 28 Jul
00:00 339 J/kg -1.7 K 0 % 0 % 0 % 0 m²/s² 0 0 -0.71 61
01:00 163 J/kg -0.9 K 0 % 0 % 0 % 0 m²/s² 0 0 1.11 61
02:00 41 J/kg -0.2 K 0 % 0 % 0 % 0 m²/s² 0 0 1.87 3
03:00 0 J/kg 0.9 K 0 % 0 % 0 % 0 m²/s² 0 0 3.09 3
04:00 0 J/kg 0.7 K 0 % 0 % 0 % 0 m²/s² 0 0 2.83 3
05:00 0 J/kg 2.3 K 0 % 0 % 0 % 0 m²/s² 0 0 4.85 3
06:00 0 J/kg 3.5 K 0 % 0 % 0 % 0 m²/s² 0 0 5.99 3
07:00 0 J/kg 4.2 K 0 % 0 % 0 % 0 m²/s² 0 0 6.54 3
08:00 0 J/kg 3.9 K 0 % 0 % 0 % 0 m²/s² 0 0 6.54 3
09:00 0 J/kg 3.4 K 0 % 0 % 0 % 0 m²/s² 0 0 6.7 80
10:00 25 J/kg 2.3 K 0 % 0 % 0 % 0 m²/s² 0 0 5.69 3
11:00 79 J/kg 1.4 K 0 % 0 % 0 % 0 m²/s² 0 0 3.95 3
12:00 87 J/kg 1.3 K 0 % 0 % 0 % 0 m²/s² 0 0 3.49 80
13:00 167 J/kg 0.5 K 0 % 0 % 0 % 0 m²/s² 0 0 3.11 2
14:00 210 J/kg 0.1 K 0 % 0 % 0 % 0 m²/s² 0 0 2.8 3
15:00 278 J/kg -0.4 K 0 % 0 % 0 % 0 m²/s² 0 0 2.27 80
16:00 300 J/kg -0.6 K 0 % 0 % 0 % 0 m²/s² 0 0 2.01 3
17:00 261 J/kg -0.2 K 0 % 0 % 0 % 0 m²/s² 0 0 2.71 80
18:00 111 J/kg 1.2 K 0 % 0 % 0 % 0 m²/s² 0 0 4.62 2
19:00 69 J/kg 1.7 K 0 % 0 % 0 % 0 m²/s² 0 0 5.3 2
20:00 67 J/kg 2.5 K 0 % 0 % 0 % 0 m²/s² 0 0 6.7 1
21:00 53 J/kg 3.4 K 0 % 0 % 0 % 0 m²/s² 0 0 4.18 2
22:00 0 J/kg 4.2 K 0 % 0 % 0 % 0 m²/s² 0 0 4.77 1
23:00 0 J/kg 5.8 K 0 % 0 % 0 % 0 m²/s² 0 0 6.34 2
 06:06     21:34    Daglengte: 15:28 Donderdag 29 Jul
00:00 0 J/kg 6.3 K 0 % 0 % 0 % 0 m²/s² 0 0 7.83 2
01:00 3 J/kg 6.6 K 0 % 0 % 0 % 0 m²/s² 0 0 8.55 2
02:00 51 J/kg 6.0 K 0 % 0 % 0 % 0 m²/s² 0 0 10.41 2
03:00 93 J/kg 6.6 K 0 % 0 % 0 % 0 m²/s² 0 0 11.34 2
04:00 97 J/kg 7.0 K 0 % 0 % 0 % 0 m²/s² 0 0 11.98 3
05:00 43 J/kg 7.8 K 0 % 0 % 0 % 0 m²/s² 0 0 13.35 3
06:00 26 J/kg 8.6 K 0 % 0 % 0 % 0 m²/s² 0 0 13.31 3
07:00 25 J/kg 8.7 K 0 % 0 % 0 % 0 m²/s² 0 0 12.63 3
08:00 69 J/kg 8.9 K 0 % 0 % 0 % 0 m²/s² 0 0 13.94 3
09:00 152 J/kg 7.8 K 0 % 0 % 0 % 0 m²/s² 0 0 12.84 3
10:00 192 J/kg 6.9 K 0 % 0 % 0 % 0 m²/s² 0 0 11.55 3
11:00 137 J/kg 6.4 K 0 % 0 % 0 % 0 m²/s² 0 0 9.91 2
12:00 126 J/kg 5.2 K 0 % 0 % 0 % 0 m²/s² 0 0 8.14 2
13:00 98 J/kg 3.9 K 0 % 0 % 0 % 0 m²/s² 0 0 8.13 2
14:00 115 J/kg 2.5 K 0 % 0 % 0 % 0 m²/s² 0 0 7.18 3
15:00 0 J/kg 0.0 K 0 % 0 % 0 % 0 m²/s² 0 0 13.83
Temp Baro Wind Neerslag
  EWN Forecast EWN WRFDA DWD ICON FMI HIRLAM MET Norway GFSWXSIM
 06:02     21:38    Daglengte: 15:36 Vandaag
17:00 19.0° 1010.0 hPa 4.4 m/s 2.8 mm 20.4° 1009.5 hPa 6.1 m/s 1.4 mm 18.5° 1010.3 hPa 5.0 m/s 3.8 mm 20.8° 1008.9 hPa 3.3 m/s 0.0 mm 21.2° 1009.1 hPa 4.6 m/s 19.4° 1009.0 hPa 3.0 m/s 2.0 mm
20:00 18.6° 1010.3 hPa 2.8 m/s 1.0 mm 20.8° 1009.1 hPa 4.4 m/s 10.5 mm 18.2° 1010.5 hPa 3.0 m/s 0.9 mm 19.7° 1009.4 hPa 2.6 m/s 0.0 mm 19.7° 1010.0 hPa 3.6 m/s 17.7° 1010.0 hPa 3.0 m/s 1.8 mm
23:00 16.9° 1011.5 hPa 2.0 m/s 0.0 mm 17.8° 1010.7 hPa 1.1 m/s 10.9 mm 16.8° 1011.8 hPa 1.8 m/s 0.0 mm 17.1° 1010.9 hPa 2.0 m/s 0.0 mm 16.4° 1010.9 hPa 1.6 m/s 16.6° 1010.0 hPa 2.0 m/s 0.5 mm
 06:03     21:37    Daglengte: 15:34 Morgen
02:00 16.3° 1011.4 hPa 3.0 m/s 0.0 mm 16.1° 1010.2 hPa 2.1 m/s 10.9 mm 15.9° 1011.6 hPa 3.2 m/s 0.0 mm 16.3° 1010.6 hPa 1.9 m/s 0.0 mm 15.6° 1011.4 hPa 2.3 m/s 16.2° 1011.0 hPa 2.0 m/s 0.0 mm
05:00 15.3° 1010.9 hPa 3.0 m/s 0.0 mm 15.3° 1009.6 hPa 3.2 m/s 10.9 mm 15.2° 1011.4 hPa 2.9 m/s 0.0 mm 15.0° 1009.9 hPa 3.0 m/s 0.0 mm 15.0° 1010.6 hPa 2.8 m/s 15.5° 1011.0 hPa 3.0 m/s 0.0 mm
08:00 16.2° 1010.8 hPa 3.1 m/s 0.0 mm 17.0° 1009.8 hPa 3.8 m/s 10.9 mm 16.5° 1011.5 hPa 2.9 m/s 0.0 mm 15.7° 1009.8 hPa 2.9 m/s 0.0 mm 16.4° 1010.5 hPa 3.3 m/s 15.5° 1011.0 hPa 3.0 m/s 0.0 mm
11:00 19.4° 1010.8 hPa 3.9 m/s 0.0 mm 20.0° 1010.1 hPa 2.9 m/s 10.9 mm 19.3° 1011.2 hPa 3.9 m/s 0.0 mm 20.7° 1010.1 hPa 4.0 m/s 0.0 mm 20.1° 1010.4 hPa 3.8 m/s 16.4° 1011.0 hPa 3.0 m/s 0.0 mm
14:00 20.9° 1010.2 hPa 4.0 m/s 2.4 mm 22.0° 1009.8 hPa 1.4 m/s 12.4 mm 20.5° 1011.2 hPa 4.7 m/s 0.6 mm 22.9° 1008.8 hPa 4.1 m/s 0.0 mm 19.2° 1010.5 hPa 3.0 m/s 16.7° 1010.0 hPa 3.0 m/s 1.5 mm
17:00 19.6° 1009.7 hPa 4.7 m/s 2.5 mm 21.5° 1009.2 hPa 3.7 m/s 33.2 mm 19.1° 1010.4 hPa 5.4 m/s 2.6 mm 20.5° 1008.3 hPa 4.4 m/s 0.0 mm 22.6° 1009.6 hPa 3.5 m/s 17.8° 1010.0 hPa 3.0 m/s 0.8 mm
20:00 18.4° 1009.4 hPa 4.1 m/s 2.8 mm 18.3° 1009.2 hPa 1.4 m/s 49.3 mm 18.5° 1010.0 hPa 5.0 m/s 0.2 mm 18.5° 1008.4 hPa 4.4 m/s 0.0 mm 18.3° 1009.1 hPa 2.1 m/s 17.3° 1009.0 hPa 3.0 m/s 1.0 mm
23:00 17.1° 1009.8 hPa 4.0 m/s 0.0 mm 17.6° 1008.8 hPa 3.2 m/s 74.6 mm 16.9° 1009.9 hPa 4.0 m/s 0.1 mm 17.8° 1010.1 hPa 3.7 m/s 0.0 mm 16.5° 1010.2 hPa 4.7 m/s 16.1° 1010.0 hPa 3.0 m/s 0.8 mm
 06:05     21:35    Daglengte: 15:30 Woensdag 28 Jul
02:00 16.3° 1009.1 hPa 4.0 m/s 0.0 mm 16.5° 1008.2 hPa 3.8 m/s 74.9 mm 16.4° 1008.7 hPa 3.8 m/s 0.2 mm 15.6° 1010.2 hPa 3.3 m/s 0.0 mm 15.2° 1009.4 hPa 4.6 m/s 15.2° 1009.0 hPa 4.0 m/s 0.5 mm
05:00 15.7° 1008.5 hPa 4.6 m/s 0.0 mm 15.1° 1007.8 hPa 3.5 m/s 74.9 mm 16.2° 1008.1 hPa 4.5 m/s 0.2 mm 15.6° 1009.2 hPa 4.0 m/s 0.0 mm 15.5° 1009.1 hPa 4.9 m/s 15.1° 1009.0 hPa 5.0 m/s 0.0 mm
08:00 15.7° 1008.8 hPa 6.3 m/s 0.0 mm 15.1° 1008.5 hPa 5.4 m/s 74.9 mm 16.2° 1007.6 hPa 6.5 m/s 0.1 mm 15.7° 1009.5 hPa 6.4 m/s 0.0 mm 15.1° 1009.7 hPa 5.5 m/s 15.2° 1009.0 hPa 5.0 m/s 0.0 mm
11:00 18.1° 1008.8 hPa 7.3 m/s 8.6 mm 18.8° 1008.2 hPa 6.6 m/s 75.0 mm 17.9° 1009.1 hPa 7.9 m/s 0.4 mm 18.0° 1009.6 hPa 7.6 m/s 16.1° 1010.0 hPa 7.0 m/s 0.0 mm
14:00 19.7° 1008.9 hPa 7.6 m/s 23.0 mm 21.3° 1008.1 hPa 7.8 m/s 75.6 mm 19.7° 1009.0 hPa 7.7 m/s 0.3 mm 19.5° 1010.1 hPa 7.1 m/s 17.7° 1009.0 hPa 7.0 m/s 0.2 mm
17:00 19.7° 1009.4 hPa 7.0 m/s 17.1 mm 21.3° 1008.4 hPa 7.6 m/s 78.9 mm 19.5° 1009.5 hPa 6.9 m/s 1.1 mm 21.7° 1009.2 hPa 7.1 m/s 17.2° 1009.0 hPa 6.0 m/s 0.8 mm
20:00 19.1° 1008.8 hPa 6.1 m/s 18.5 mm 20.7° 1007.9 hPa 6.7 m/s 80.8 mm 19.0° 1008.9 hPa 6.0 m/s 0.1 mm 18.6° 1008.8 hPa 5.7 m/s 16.3° 1009.0 hPa 6.0 m/s 1.0 mm
23:00 16.5° 1009.2 hPa 5.3 m/s 18.7 mm 17.1° 1008.5 hPa 4.8 m/s 81.1 mm 16.3° 1009.4 hPa 5.3 m/s 0.0 mm 16.8° 1008.8 hPa 5.8 m/s 14.6° 1009.0 hPa 6.0 m/s 0.5 mm
 06:06     21:34    Daglengte: 15:28 Donderdag 29 Jul
02:00 15.1° 1008.3 hPa 5.8 m/s 0.0 mm 15.7° 1007.6 hPa 4.7 m/s 82.2 mm 15.1° 1009.2 hPa 5.7 m/s 0.0 mm 15.0° 1008.8 hPa 6.9 m/s 13.9° 1008.0 hPa 6.0 m/s 0.3 mm
05:00 14.4° 1007.8 hPa 6.1 m/s 0.0 mm 14.2° 1007.2 hPa 5.8 m/s 82.3 mm 14.9° 1009.6 hPa 5.5 m/s 0.0 mm 13.7° 1009.0 hPa 6.6 m/s 13.1° 1009.0 hPa 7.0 m/s 0.0 mm
08:00 14.5° 1008.7 hPa 6.9 m/s 0.0 mm 14.5° 1007.4 hPa 7.0 m/s 82.3 mm 15.2° 1010.6 hPa 5.8 m/s 0.0 mm 14.3° 1009.3 hPa 7.5 m/s 12.9° 1009.0 hPa 7.0 m/s 0.0 mm
11:00 18.1° 1010.6 hPa 7.3 m/s 0.0 mm 18.3° 1007.8 hPa 8.6 m/s 82.3 mm 18.1° 1011.3 hPa 7.0 m/s 0.0 mm 17.9° 1010.8 hPa 7.7 m/s 13.9° 1010.0 hPa 8.0 m/s 0.2 mm
14:00 19.7° 1010.8 hPa 7.7 m/s 0.0 mm 19.4° 1008.5 hPa 9.6 m/s 82.3 mm 19.8° 1011.4 hPa 7.3 m/s 0.0 mm 21.2° 1011.1 hPa 7.7 m/s 16.8° 1011.0 hPa 8.0 m/s 0.0 mm
17:00 18.7° 1011.1 hPa 7.2 m/s 6.0 mm 20.5° 1011.5 hPa 7.7 m/s 11.8 mm 18.1° 1011.0 hPa 7.0 m/s 0.3 mm
20:00 17.8° 1011.8 hPa 6.1 m/s 11.8 mm 18.5° 1011.7 hPa 6.5 m/s 11.8 mm 17.5° 1012.0 hPa 6.0 m/s 0.0 mm
23:00 14.9° 1012.0 hPa 4.7 m/s 11.8 mm 15.1° 1012.1 hPa 4.7 m/s 11.8 mm 14.9° 1012.0 hPa 5.0 m/s 0.0 mm
 06:07     21:32    Daglengte: 15:25 Vrijdag 30 Jul
02:00 13.4° 1012.0 hPa 4.0 m/s 11.8 mm 13.4° 1012.0 hPa 4.0 m/s 11.8 mm 13.7° 1012.0 hPa 4.0 m/s 0.0 mm
05:00 12.5° 1011.2 hPa 3.6 m/s 11.8 mm 12.2° 1011.7 hPa 3.5 m/s 11.8 mm 13.1° 1011.0 hPa 4.0 m/s 0.0 mm
08:00 13.8° 1011.9 hPa 4.0 m/s 11.8 mm 14.0° 1011.8 hPa 4.0 m/s 11.8 mm 13.7° 1012.0 hPa 4.0 m/s 0.0 mm
11:00 16.9° 1011.5 hPa 4.0 m/s 11.8 mm 19.2° 1011.3 hPa 4.0 m/s 11.8 mm 16.2° 1012.0 hPa 4.0 m/s 0.0 mm
14:00 20.7° 1010.0 hPa 3.9 m/s 11.8 mm 22.6° 1010.1 hPa 3.9 m/s 11.8 mm 20.0° 1010.0 hPa 4.0 m/s 0.0 mm
17:00 21.0° 1008.8 hPa 3.2 m/s 11.8 mm 21.8° 1008.8 hPa 3.6 m/s 11.8 mm 20.7° 1009.0 hPa 3.0 m/s 0.0 mm
20:00 18.2° 1007.6 hPa 2.3 m/s 6.4 mm 19.2° 1007.5 hPa 3.0 m/s 12.5 mm 17.9° 1008.0 hPa 2.0 m/s 0.2 mm
23:00 15.5° 1008.0 hPa 1.4 m/s 7.2 mm 16.3° 1008.2 hPa 2.6 m/s 13.4 mm 15.3° 1008.0 hPa 1.0 m/s 1.1 mm
 06:09     21:31    Daglengte: 15:22 Zaterdag 31 Jul
02:00 14.3° 1008.0 hPa 2.2 m/s 6.8 mm 14.3° 1007.9 hPa 2.9 m/s 13.4 mm 14.3° 1008.0 hPa 2.0 m/s 0.2 mm
05:00 13.1° 1006.7 hPa 3.1 m/s 13.4 mm 12.9° 1006.6 hPa 3.4 m/s 13.4 mm 13.7° 1007.0 hPa 3.0 m/s 0.0 mm
08:00 14.1° 1005.7 hPa 4.4 m/s 13.4 mm 14.2° 1005.7 hPa 5.7 m/s 13.4 mm 14.0° 1006.0 hPa 4.0 m/s 0.0 mm
11:00 14.7° 1004.8 hPa 7.3 m/s 7.1 mm 14.2° 1004.7 hPa 8.0 m/s 13.7 mm 16.0° 1005.0 hPa 7.0 m/s 0.5 mm
14:00 15.8° 1004.1 hPa 8.1 m/s 8.0 mm 16.5° 1004.4 hPa 8.3 m/s 15.0 mm 15.6° 1004.0 hPa 8.0 m/s 1.0 mm
17:00 16.6° 1004.4 hPa 8.2 m/s 8.4 mm 20.0° 1005.5 hPa 8.8 m/s 15.6 mm 15.5° 1004.0 hPa 8.0 m/s 1.1 mm
20:00 16.3° 1007.0 hPa 4.7 m/s 7.9 mm 18.4° 1007.1 hPa 4.6 m/s 15.7 mm 15.6° 1007.0 hPa 5.0 m/s 0.2 mm
23:00 14.0° 1008.1 hPa 3.0 m/s 15.7 mm 14.6° 1008.3 hPa 2.9 m/s 15.7 mm 13.8° 1008.0 hPa 3.0 m/s 0.0 mm
 06:10     21:29    Daglengte: 15:19 Zondag 01 Aug
02:00 13.4° 1007.8 hPa 3.2 m/s 15.7 mm 14.9° 1007.8 hPa 3.6 m/s 15.7 mm 12.9° 1008.0 hPa 3.0 m/s 0.0 mm
05:00 12.5° 1007.0 hPa 3.6 m/s 8.1 mm 13.0° 1007.2 hPa 3.5 m/s 15.9 mm 12.3° 1007.0 hPa 4.0 m/s 0.3 mm
08:00 13.0° 1007.0 hPa 4.2 m/s 8.0 mm 14.4° 1007.1 hPa 4.7 m/s 15.9 mm 12.6° 1007.0 hPa 4.0 m/s 0.2 mm
11:00 14.8° 1007.8 hPa 4.6 m/s 8.8 mm 17.3° 1007.7 hPa 6.5 m/s 16.8 mm 14.0° 1008.0 hPa 4.0 m/s 0.8 mm
14:00 16.5° 1008.1 hPa 6.0 m/s 8.9 mm 19.1° 1008.6 hPa 6.2 m/s 17.1 mm 15.7° 1008.0 hPa 6.0 m/s 0.7 mm
17:00 17.0° 1009.1 hPa 6.0 m/s 8.7 mm 18.5° 1009.5 hPa 6.0 m/s 17.1 mm 16.5° 1009.0 hPa 6.0 m/s 0.3 mm
20:00 15.7° 1010.3 hPa 4.3 m/s 9.0 mm 16.4° 1011.0 hPa 5.1 m/s 17.7 mm 15.5° 1010.0 hPa 4.0 m/s 0.3 mm
23:00 13.3° 1012.3 hPa 2.7 m/s 17.7 mm 13.3° 1013.0 hPa 2.5 m/s 17.7 mm 13.3° 1012.0 hPa 3.0 m/s 0.0 mm
 06:12     21:27    Daglengte: 15:15 Maandag 02 Aug
02:00 12.1° 1014.0 hPa 2.3 m/s 17.7 mm 12.1° 1014.0 hPa 2.3 m/s 17.7 mm
05:00 10.9° 1014.5 hPa 2.3 m/s 17.7 mm 10.9° 1014.5 hPa 2.3 m/s 17.7 mm
08:00 13.0° 1015.4 hPa 2.2 m/s 17.7 mm 13.0° 1015.4 hPa 2.2 m/s 17.7 mm
11:00 15.7° 1016.6 hPa 2.8 m/s 17.7 mm 15.7° 1016.6 hPa 2.8 m/s 17.7 mm
14:00 17.0° 1016.5 hPa 1.9 m/s 17.7 mm 17.0° 1016.5 hPa 1.9 m/s 17.7 mm
20:00 18.6° 1015.4 hPa 0.8 m/s 17.8 mm 18.6° 1015.4 hPa 0.8 m/s 17.8 mm
 06:13     21:26    Daglengte: 15:13 Dinsdag 03 Aug
02:00 12.5° 1015.9 hPa 2.0 m/s 18.0 mm 12.5° 1015.9 hPa 2.0 m/s 18.0 mm
08:00 13.0° 1016.3 hPa 3.6 m/s 18.0 mm 13.0° 1016.3 hPa 3.6 m/s 18.0 mm
14:00 21.5° 1015.4 hPa 4.9 m/s 18.0 mm 21.5° 1015.4 hPa 4.9 m/s 18.0 mm
20:00 20.2° 1014.2 hPa 4.0 m/s 18.0 mm 20.2° 1014.2 hPa 4.0 m/s 18.0 mm
 06:15     21:24    Daglengte: 15:09 Woensdag 04 Aug
02:00 15.5° 1013.5 hPa 3.9 m/s 18.0 mm 15.5° 1013.5 hPa 3.9 m/s 18.0 mm
08:00 16.0° 1011.8 hPa 4.6 m/s 18.0 mm 16.0° 1011.8 hPa 4.6 m/s 18.0 mm
14:00 22.2° 1010.1 hPa 7.8 m/s 18.1 mm 22.2° 1010.1 hPa 7.8 m/s 18.1 mm
20:00 19.6° 1009.7 hPa 7.0 m/s 19.1 mm 19.6° 1009.7 hPa 7.0 m/s 19.1 mm
 06:16     21:22    Daglengte: 15:06 Donderdag 05 Aug
02:00 14.6° 1010.1 hPa 4.7 m/s 19.1 mm 14.6° 1010.1 hPa 4.7 m/s 19.1 mm
08:00 15.0° 1009.0 hPa 4.8 m/s 19.1 mm 15.0° 1009.0 hPa 4.8 m/s 19.1 mm
14:00 20.5° 1010.3 hPa 3.7 m/s 1.2 mm
20:00 18.7° 1008.9 hPa 2.3 m/s 1.7 mm
 06:18     21:21    Daglengte: 15:03 Vrijdag 06 Aug
02:00 14.8° 1008.5 hPa 2.3 m/s 0.8 mm
08:00 14.8° 1008.3 hPa 2.7 m/s 0.8 mm
14:00 19.9° 1008.4 hPa 3.7 m/s 1.5 mm
20:00 18.1° 1007.7 hPa 3.2 m/s 2.1 mm
 06:19     21:19    Daglengte: 15:00 Zaterdag 07 Aug
02:00 14.2° 1008.3 hPa 3.2 m/s 0.6 mm
08:00 14.5° 1008.4 hPa 3.6 m/s 0.8 mm
14:00 19.2° 1009.0 hPa 5.1 m/s 1.7 mm
20:00 17.6° 1009.6 hPa 4.2 m/s 1.7 mm
 06:21     21:17    Daglengte: 14:56 Zondag 08 Aug
02:00 14.1° 1010.7 hPa 3.7 m/s 0.2 mm
08:00 14.4° 1010.7 hPa 4.3 m/s 0.7 mm
14:00 19.3° 1011.5 hPa 5.6 m/s 1.5 mm
20:00 17.8° 1012.0 hPa 3.8 m/s 0.2 mm
 06:22     21:15    Daglengte: 14:53 Maandag 09 Aug
02:00 14.3° 1013.2 hPa 3.4 m/s 0.4 mm
08:00 14.3° 1013.7 hPa 3.9 m/s 0.4 mm
14:00 19.3° 1014.5 hPa 4.6 m/s 0.9 mm
20:00 17.9° 1014.7 hPa 2.8 m/s 0.2 mm
 06:24     21:13    Daglengte: 14:49 Dinsdag 10 Aug
02:00 14.0° 1015.6 hPa 2.2 m/s 0.6 mm
08:00 14.3° 1015.9 hPa 3.0 m/s 0.4 mm
14:00 20.5° 1016.6 hPa 4.1 m/s 0.7 mm
FMI Hirlam - 7.5 km EWN WRFDA - 12 km DWD ICON - 7 km GFS - 25 km Basiskaart